Location: La Junie
(44.7428°N, 2.1773°E)
Time: 19:46:29
(UTC+00:00)

RESURS DK-1 - Pass Details

Date: 15 May 2026
Orbit: 522 x 531 km, 69.9° (Epoch: 6 June)

Event Time Altitude Azimuth Distance (km) Brightness Sun altitude
Rises 22:14:32 0° 340° (NNW) 2,681 7.3 -22.8°
Reaches altitude 10° 22:16:54 10° 351° (N) 1,788 6.0 -22.9°
Maximum altitude 22:20:30 32° 55° (NE) 930 3.5 -23.2°
Enters shadow 22:20:42 32° 62° (ENE) 934 3.5 -23.2°
